#Datum;Uhrzeit;WR;Pac;DaySum;Status;WR;Pac;DaySum;Status;Pdc1;Udc;Temp;WR;Pac;DaySum;Status;Pdc1;Udc;Temp;WR;Pac;DaySum;Status;Pdc1;Udc;Temp;WR;Pac;DaySum;Status;Pdc1;Pdc2;Udc1;Udc2;Temp;WR;Pac;DaySum;Status;Pdc1;Pdc2;Udc1;Udc2;Temp;WR;Pac;DaySum;Status;Pdc1;Udc;Temp;WR;Pac;DaySum;Status;Pdc1;Udc;Temp;WR;Pac;DaySum;Status;Pdc1;Udc;Temp
30.12.18;23:55:00;1;505;12977;0;2;0;1361;0;0;0;0;3;0;852;0;0;0;0;4;0;847;0;0;0;0;5;0;3083;0;0;0;0;0;0;6;0;2368;0;0;0;0;0;0;7;0;1846;0;0;0;0;8;0;1960;0;0;0;0;9;0;977;0;0;0;0
30.12.18;23:50:00;1;877;12935;0;2;0;1361;0;0;0;0;3;0;852;0;0;0;0;4;0;847;0;0;0;0;5;0;3083;0;0;0;0;0;0;6;0;2368;0;0;0;0;0;0;7;0;1846;0;0;0;0;8;0;1960;0;0;0;0;9;0;977;0;0;0;0
30.12.18;23:45:00;1;502;12864;0;2;0;1361;0;0;0;0;3;0;852;0;0;0;0;4;0;847;0;0;0;0;5;0;3083;0;0;0;0;0;0;6;0;2368;0;0;0;0;0;0;7;0;1846;0;0;0;0;8;0;1960;0;0;0;0;9;0;977;0;0;0;0
30.12.18;23:40:00;1;495;12823;0;2;0;1361;0;0;0;0;3;0;852;0;0;0;0;4;0;847;0;0;0;0;5;0;3083;0;0;0;0;0;0;6;0;2368;0;0;0;0;0;0;7;0;1846;0;0;0;0;8;0;1960;0;0;0;0;9;0;977;0;0;0;0
30.12.18;23:35:00;1;370;12782;0;2;0;1361;0;0;0;0;3;0;852;0;0;0;0;4;0;847;0;0;0;0;5;0;3083;0;0;0;0;0;0;6;0;2368;0;0;0;0;0;0;7;0;1846;0;0;0;0;8;0;1960;0;0;0;0;9;0;977;0;0;0;0
30.12.18;23:30:00;1;380;12751;0;2;0;1361;0;0;0;0;3;0;852;0;0;0;0;4;0;847;0;0;0;0;5;0;3083;0;0;0;0;0;0;6;0;2368;0;0;0;0;0;0;7;0;1846;0;0;0;0;8;0;1960;0;0;0;0;9;0;977;0;0;0;0
30.12.18;23:25:00;1;368;12719;0;2;0;1361;0;0;0;0;3;0;852;0;0;0;0;4;0;847;0;0;0;0;5;0;3083;0;0;0;0;0;0;6;0;2368;0;0;0;0;0;0;7;0;1846;0;0;0;0;8;0;1960;0;0;0;0;9;0;977;0;0;0;0
30.12.18;23:20:00;1;330;12690;0;2;0;1361;0;0;0;0;3;0;852;0;0;0;0;4;0;847;0;0;0;0;5;0;3083;0;0;0;0;0;0;6;0;2368;0;0;0;0;0;0;7;0;1846;0;0;0;0;8;0;1960;0;0;0;0;9;0;977;0;0;0;0
30.12.18;23:15:00;1;937;12662;0;2;0;1361;0;0;0;0;3;0;852;0;0;0;0;4;0;847;0;0;0;0;5;0;3083;0;0;0;0;0;0;6;0;2368;0;0;0;0;0;0;7;0;1846;0;0;0;0;8;0;1960;0;0;0;0;9;0;977;0;0;0;0
30.12.18;23:10:00;1;286;12609;0;2;0;1361;0;0;0;0;3;0;852;0;0;0;0;4;0;847;0;0;0;0;5;0;3083;0;0;0;0;0;0;6;0;2368;0;0;0;0;0;0;7;0;1846;0;0;0;0;8;0;1960;0;0;0;0;9;0;977;0;0;0;0
30.12.18;23:07:00;1;287;12599;0;2;0;1361;0;0;0;0;3;0;852;0;0;0;0;4;0;847;0;0;0;0;5;0;3083;0;0;0;0;0;0;6;0;2368;0;0;0;0;0;0;7;0;1846;0;0;0;0;8;0;1960;0;0;0;0;9;0;977;0;0;0;0
30.12.18;23:00:00;1;290;12561;0;2;0;1361;0;0;0;0;3;0;852;0;0;0;0;4;0;847;0;0;0;0;5;0;3083;0;0;0;0;0;0;6;0;2368;0;0;0;0;0;0;7;0;1846;0;0;0;0;8;0;1960;0;0;0;0;9;0;977;0;0;0;0
30.12.18;22:55:00;1;285;12537;0;2;0;1361;0;0;0;0;3;0;852;0;0;0;0;4;0;847;0;0;0;0;5;0;3083;2;0;0;0;0;0;6;0;2368;2;0;0;0;0;0;7;0;1846;0;0;0;0;8;0;1960;0;0;0;0;9;0;977;0;0;0;0
30.12.18;22:50:00;1;286;12513;0;2;0;1361;0;0;0;0;3;0;852;0;0;0;0;4;0;847;0;0;0;0;5;0;3083;2;0;0;0;0;0;6;0;2368;2;0;0;0;0;0;7;0;1846;0;0;0;0;8;0;1960;0;0;0;0;9;0;977;0;0;0;0
30.12.18;22:45:00;1;488;12489;0;2;0;1361;0;0;0;0;3;0;852;0;0;0;0;4;0;847;0;0;0;0;5;0;3083;2;0;0;0;0;0;6;0;2368;2;0;0;0;0;0;7;0;1846;0;0;0;0;8;0;1960;0;0;0;0;9;0;977;0;0;0;0
30.12.18;22:40:00;1;295;12439;0;2;0;1361;0;0;0;0;3;0;852;0;0;0;0;4;0;847;0;0;0;0;5;0;3083;2;0;0;0;0;0;6;0;2368;2;0;0;0;0;0;7;0;1846;0;0;0;0;8;0;1960;0;0;0;0;9;0;977;0;0;0;0
30.12.18;22:35:00;1;287;12414;0;2;0;1361;0;0;0;0;3;0;852;0;0;0;0;4;0;847;0;0;0;0;5;0;3083;2;0;0;0;0;0;6;0;2368;2;0;0;0;0;0;7;0;1846;0;0;0;0;8;0;1960;0;0;0;0;9;0;977;0;0;0;0
30.12.18;22:30:00;1;286;12391;0;2;0;1361;0;0;0;0;3;0;852;0;0;0;0;4;0;847;0;0;0;0;5;0;3083;2;0;0;0;0;0;6;0;2368;2;0;0;0;0;0;7;0;1846;0;0;0;0;8;0;1960;0;0;0;0;9;0;977;0;0;0;0
30.12.18;22:25:00;1;325;12366;0;2;0;1361;0;0;0;0;3;0;852;0;0;0;0;4;0;847;0;0;0;0;5;0;3083;2;0;0;0;0;0;6;0;2368;2;0;0;0;0;0;7;0;1846;0;0;0;0;8;0;1960;0;0;0;0;9;0;977;0;0;0;0
30.12.18;22:20:00;1;326;12339;0;2;0;1361;0;0;0;0;3;0;852;0;0;0;0;4;0;847;0;0;0;0;5;0;3083;2;0;0;0;0;0;6;0;2368;2;0;0;0;0;0;7;0;1846;0;0;0;0;8;0;1960;0;0;0;0;9;0;977;0;0;0;0
30.12.18;22:15:00;1;329;12312;0;2;0;1361;0;0;0;0;3;0;852;0;0;0;0;4;0;847;0;0;0;0;5;0;3083;2;0;0;0;0;0;6;0;2368;2;0;0;0;0;0;7;0;1846;0;0;0;0;8;0;1960;0;0;0;0;9;0;977;0;0;0;0
30.12.18;22:10:00;1;494;12281;0;2;0;1361;0;0;0;0;3;0;852;0;0;0;0;4;0;847;0;0;0;0;5;0;3083;2;0;0;0;0;0;6;0;2368;2;0;0;0;0;0;7;0;1846;0;0;0;0;8;0;1960;0;0;0;0;9;0;977;0;0;0;0
30.12.18;22:05:00;1;285;12233;0;2;0;1361;0;0;0;0;3;0;852;0;0;0;0;4;0;847;0;0;0;0;5;0;3083;2;0;0;0;0;0;6;0;2368;2;0;0;0;0;0;7;0;1846;0;0;0;0;8;0;1960;0;0;0;0;9;0;977;0;0;0;0
30.12.18;22:00:00;1;289;12209;0;2;0;1361;0;0;0;0;3;0;852;0;0;0;0;4;0;847;0;0;0;0;5;0;3083;2;0;0;0;0;0;6;0;2368;2;0;0;0;0;0;7;0;1846;0;0;0;0;8;0;1960;0;0;0;0;9;0;977;0;0;0;0
30.12.18;21:55:00;1;325;12185;0;2;0;1361;0;0;0;0;3;0;852;0;0;0;0;4;0;847;0;0;0;0;5;0;3083;2;0;0;0;0;0;6;0;2368;2;0;0;0;0;0;7;0;1846;0;0;0;0;8;0;1960;0;0;0;0;9;0;977;0;0;0;0
30.12.18;21:50:00;1;354;12157;0;2;0;1361;0;0;0;0;3;0;852;0;0;0;0;4;0;847;0;0;0;0;5;0;3083;2;0;0;0;0;0;6;0;2368;2;0;0;0;0;0;7;0;1846;0;0;0;0;8;0;1960;0;0;0;0;9;0;977;0;0;0;0
30.12.18;21:45:00;1;354;12128;0;2;0;1361;0;0;0;0;3;0;852;0;0;0;0;4;0;847;0;0;0;0;5;0;3083;2;0;0;0;0;0;6;0;2368;2;0;0;0;0;0;7;0;1846;0;0;0;0;8;0;1960;0;0;0;0;9;0;977;0;0;0;0
30.12.18;21:40:00;1;711;12098;0;2;0;1361;0;0;0;0;3;0;852;0;0;0;0;4;0;847;0;0;0;0;5;0;3083;2;0;0;0;0;0;6;0;2368;2;0;0;0;0;0;7;0;1846;0;0;0;0;8;0;1960;0;0;0;0;9;0;977;0;0;0;0
30.12.18;21:35:00;1;355;12042;0;2;0;1361;0;0;0;0;3;0;852;0;0;0;0;4;0;847;0;0;0;0;5;0;3083;2;0;0;0;0;0;6;0;2368;2;0;0;0;0;0;7;0;1846;0;0;0;0;8;0;1960;0;0;0;0;9;0;977;0;0;0;0
30.12.18;21:30:00;1;356;12012;0;2;0;1361;0;0;0;0;3;0;852;0;0;0;0;4;0;847;0;0;0;0;5;0;3083;2;0;0;0;0;0;6;0;2368;2;0;0;0;0;0;7;0;1846;0;0;0;0;8;0;1960;0;0;0;0;9;0;977;0;0;0;0
30.12.18;21:25:00;1;365;11982;0;2;0;1361;0;0;0;0;3;0;852;0;0;0;0;4;0;847;0;0;0;0;5;0;3083;2;0;0;0;0;0;6;0;2368;2;0;0;0;0;0;7;0;1846;0;0;0;0;8;0;1960;0;0;0;0;9;0;977;0;0;0;0
30.12.18;21:20:00;1;383;11951;0;2;0;1361;0;0;0;0;3;0;852;0;0;0;0;4;0;847;0;0;0;0;5;0;3083;2;0;0;0;0;0;6;0;2368;2;0;0;0;0;0;7;0;1846;0;0;0;0;8;0;1960;0;0;0;0;9;0;977;0;0;0;0
30.12.18;21:15:00;1;330;11920;0;2;0;1361;0;0;0;0;3;0;852;0;0;0;0;4;0;847;0;0;0;0;5;0;3083;2;0;0;0;0;0;6;0;2368;2;0;0;0;0;0;7;0;1846;0;0;0;0;8;0;1960;0;0;0;0;9;0;977;0;0;0;0
30.12.18;21:10:00;1;698;11892;0;2;0;1361;0;0;0;0;3;0;852;0;0;0;0;4;0;847;0;0;0;0;5;0;3083;2;0;0;0;0;0;6;0;2368;2;0;0;0;0;0;7;0;1846;0;0;0;0;8;0;1960;0;0;0;0;9;0;977;0;0;0;0
30.12.18;21:05:00;1;288;11839;0;2;0;1361;0;0;0;0;3;0;852;0;0;0;0;4;0;847;0;0;0;0;5;0;3083;2;0;0;0;0;0;6;0;2368;2;0;0;0;0;0;7;0;1846;0;0;0;0;8;0;1960;0;0;0;0;9;0;977;0;0;0;0
30.12.18;21:00:00;1;289;11815;0;2;0;1361;0;0;0;0;3;0;852;0;0;0;0;4;0;847;0;0;0;0;5;0;3083;2;0;0;0;0;0;6;0;2368;2;0;0;0;0;0;7;0;1846;0;0;0;0;8;0;1960;0;0;0;0;9;0;977;0;0;0;0
30.12.18;20:55:00;1;289;11791;0;2;0;1361;0;0;0;0;3;0;852;0;0;0;0;4;0;847;0;0;0;0;5;0;3083;2;0;0;0;0;0;6;0;2368;2;0;0;0;0;0;7;0;1846;0;0;0;0;8;0;1960;0;0;0;0;9;0;977;0;0;0;0
30.12.18;20:50:00;1;289;11767;0;2;0;1361;0;0;0;0;3;0;852;0;0;0;0;4;0;847;0;0;0;0;5;0;3083;2;0;0;0;0;0;6;0;2368;2;0;0;0;0;0;7;0;1846;0;0;0;0;8;0;1960;0;0;0;0;9;0;977;0;0;0;0
30.12.18;20:45:00;1;290;11743;0;2;0;1361;0;0;0;0;3;0;852;0;0;0;0;4;0;847;0;0;0;0;5;0;3083;2;0;0;0;0;0;6;0;2368;2;0;0;0;0;0;7;0;1846;0;0;0;0;8;0;1960;0;0;0;0;9;0;977;0;0;0;0
30.12.18;20:40:00;1;287;11718;0;2;0;1361;0;0;0;0;3;0;852;0;0;0;0;4;0;847;0;0;0;0;5;0;3083;2;0;0;0;0;0;6;0;2368;2;0;0;0;0;0;7;0;1846;0;0;0;0;8;0;1960;0;0;0;0;9;0;977;0;0;0;0
30.12.18;20:35:00;1;729;11694;0;2;0;1361;0;0;0;0;3;0;852;0;0;0;0;4;0;847;0;0;0;0;5;0;3083;2;0;0;0;0;0;6;0;2368;2;0;0;0;0;0;7;0;1846;0;0;0;0;8;0;1960;0;0;0;0;9;0;977;0;0;0;0
30.12.18;20:30:00;1;288;11643;0;2;0;1361;0;0;0;0;3;0;852;0;0;0;0;4;0;847;0;0;0;0;5;0;3083;2;0;0;0;0;0;6;0;2368;2;0;0;0;0;0;7;0;1846;0;0;0;0;8;0;1960;0;0;0;0;9;0;977;0;0;0;0
30.12.18;20:25:00;1;292;11619;0;2;0;1361;0;0;0;0;3;0;852;0;0;0;0;4;0;847;0;0;0;0;5;0;3083;2;0;0;0;0;0;6;0;2368;2;0;0;0;0;0;7;0;1846;0;0;0;0;8;0;1960;0;0;0;0;9;0;977;0;0;0;0
30.12.18;20:20:00;1;329;11594;0;2;0;1361;0;0;0;0;3;0;852;0;0;0;0;4;0;847;0;0;0;0;5;0;3083;2;0;0;0;0;0;6;0;2368;2;0;0;0;0;0;7;0;1846;0;0;0;0;8;0;1960;0;0;0;0;9;0;977;0;0;0;0
30.12.18;20:15:00;1;330;11567;0;2;0;1361;0;0;0;0;3;0;852;0;0;0;0;4;0;847;0;0;0;0;5;0;3083;2;0;0;0;0;0;6;0;2368;2;0;0;0;0;0;7;0;1846;0;0;0;0;8;0;1960;0;0;0;0;9;0;977;0;0;0;0
30.12.18;20:10:00;1;332;11539;0;2;0;1361;0;0;0;0;3;0;852;0;0;0;0;4;0;847;0;0;0;0;5;0;3083;2;0;0;0;0;0;6;0;2368;2;0;0;0;0;0;7;0;1846;0;0;0;0;8;0;1960;0;0;0;0;9;0;977;0;0;0;0
30.12.18;20:05:00;1;706;11511;0;2;0;1361;0;0;0;0;3;0;852;0;0;0;0;4;0;847;0;0;0;0;5;0;3083;2;0;0;0;0;0;6;0;2368;2;0;0;0;0;0;7;0;1846;0;0;0;0;8;0;1960;0;0;0;0;9;0;977;0;0;0;0
30.12.18;20:00:00;1;288;11459;0;2;0;1361;0;0;0;0;3;0;852;0;0;0;0;4;0;847;0;0;0;0;5;0;3083;2;0;0;0;0;0;6;0;2368;2;0;0;0;0;0;7;0;1846;0;0;0;0;8;0;1960;0;0;0;0;9;0;977;0;0;0;0
30.12.18;19:55:00;1;297;11435;0;2;0;1361;0;0;0;0;3;0;852;0;0;0;0;4;0;847;0;0;0;0;5;0;3083;2;0;0;0;0;0;6;0;2368;2;0;0;0;0;0;7;0;1846;0;0;0;0;8;0;1960;0;0;0;0;9;0;977;0;0;0;0
30.12.18;19:50:00;1;353;11409;0;2;0;1361;0;0;0;0;3;0;852;0;0;0;0;4;0;847;0;0;0;0;5;0;3083;2;0;0;0;0;0;6;0;2368;2;0;0;0;0;0;7;0;1846;0;0;0;0;8;0;1960;0;0;0;0;9;0;977;0;0;0;0
30.12.18;19:45:00;1;358;11380;0;2;0;1361;0;0;0;0;3;0;852;0;0;0;0;4;0;847;0;0;0;0;5;0;3083;2;0;0;0;0;0;6;0;2368;2;0;0;0;0;0;7;0;1846;0;0;0;0;8;0;1960;0;0;0;0;9;0;977;0;0;0;0
30.12.18;19:40:00;1;354;11350;0;2;0;1361;0;0;0;0;3;0;852;0;0;0;0;4;0;847;0;0;0;0;5;0;3083;2;0;0;0;0;0;6;0;2368;2;0;0;0;0;0;7;0;1846;0;0;0;0;8;0;1960;0;0;0;0;9;0;977;0;0;0;0
30.12.18;19:35:00;1;559;11320;0;2;0;1361;0;0;0;0;3;0;852;0;0;0;0;4;0;847;0;0;0;0;5;0;3083;2;0;0;0;0;0;6;0;2368;2;0;0;0;0;0;7;0;1846;0;0;0;0;8;0;1960;0;0;0;0;9;0;977;0;0;0;0
30.12.18;19:30:00;1;391;11264;0;2;0;1361;0;0;0;0;3;0;852;0;0;0;0;4;0;847;0;0;0;0;5;0;3083;2;0;0;0;0;0;6;0;2368;2;0;0;0;0;0;7;0;1846;0;0;0;0;8;0;1960;0;0;0;0;9;0;977;0;0;0;0
30.12.18;19:25:00;1;412;11231;0;2;0;1361;0;0;0;0;3;0;852;0;0;0;0;4;0;847;0;0;0;0;5;0;3083;2;0;0;0;0;0;6;0;2368;2;0;0;0;0;0;7;0;1846;0;0;0;0;8;0;1960;0;0;0;0;9;0;977;0;0;0;0
30.12.18;19:20:00;1;784;11195;0;2;0;1361;0;0;0;0;3;0;852;0;0;0;0;4;0;847;0;0;0;0;5;0;3083;2;0;0;0;0;0;6;0;2368;2;0;0;0;0;0;7;0;1846;0;0;0;0;8;0;1960;0;0;0;0;9;0;977;0;0;0;0
30.12.18;19:15:00;1;1685;11130;0;2;0;1361;0;0;0;0;3;0;852;0;0;0;0;4;0;847;0;0;0;0;5;0;3083;2;0;0;0;0;0;6;0;2368;2;0;0;0;0;0;7;0;1846;0;0;0;0;8;0;1960;0;0;0;0;9;0;977;0;0;0;0
30.12.18;19:10:00;1;567;11000;0;2;0;1361;0;0;0;0;3;0;852;0;0;0;0;4;0;847;0;0;0;0;5;0;3083;2;0;0;0;0;0;6;0;2368;2;0;0;0;0;0;7;0;1846;0;0;0;0;8;0;1960;0;0;0;0;9;0;977;0;0;0;0
30.12.18;19:05:00;1;962;10953;0;2;0;1361;0;0;0;0;3;0;852;0;0;0;0;4;0;847;0;0;0;0;5;0;3083;2;0;0;0;0;0;6;0;2368;2;0;0;0;0;0;7;0;1846;0;0;0;0;8;0;1960;0;0;0;0;9;0;977;0;0;0;0
30.12.18;19:00:00;1;511;10880;0;2;0;1361;0;0;0;0;3;0;852;0;0;0;0;4;0;847;0;0;0;0;5;0;3083;2;0;0;0;0;0;6;0;2368;2;0;0;0;0;0;7;0;1846;0;0;0;0;8;0;1960;0;0;0;0;9;0;977;0;0;0;0
30.12.18;18:55:00;1;502;10837;0;2;0;1361;0;0;0;0;3;0;852;0;0;0;0;4;0;847;0;0;0;0;5;0;3083;2;0;0;0;0;0;6;0;2368;2;0;0;0;0;0;7;0;1846;0;0;0;0;8;0;1960;0;0;0;0;9;0;977;0;0;0;0
30.12.18;18:50:00;1;502;10795;0;2;0;1361;0;0;0;0;3;0;852;0;0;0;0;4;0;847;0;0;0;0;5;0;3083;2;0;0;0;0;0;6;0;2368;2;0;0;0;0;0;7;0;1846;0;0;0;0;8;0;1960;0;0;0;0;9;0;977;0;0;0;0
30.12.18;18:45:00;1;512;10753;0;2;0;1361;0;0;0;0;3;0;852;0;0;0;0;4;0;847;0;0;0;0;5;0;3083;2;0;0;0;0;0;6;0;2368;2;0;0;0;0;0;7;0;1846;0;0;0;0;8;0;1960;0;0;0;0;9;0;977;0;0;0;0
30.12.18;18:40:00;1;870;10710;0;2;0;1361;0;0;0;0;3;0;852;0;0;0;0;4;0;847;0;0;0;0;5;0;3083;2;0;0;0;0;0;6;0;2368;2;0;0;0;0;0;7;0;1846;0;0;0;0;8;0;1960;0;0;0;0;9;0;977;0;0;0;0
30.12.18;18:35:00;1;546;10641;0;2;0;1361;0;0;0;0;3;0;852;0;0;0;0;4;0;847;0;0;0;0;5;0;3083;2;0;0;0;0;0;6;0;2368;2;0;0;0;0;0;7;0;1846;0;0;0;0;8;0;1960;0;0;0;0;9;0;977;0;0;0;0
30.12.18;18:30:00;1;539;10596;0;2;0;1361;0;0;0;0;3;0;852;0;0;0;0;4;0;847;0;0;0;0;5;0;3083;2;0;0;0;0;0;6;0;2368;2;0;0;0;0;0;7;0;1846;0;0;0;0;8;0;1960;0;0;0;0;9;0;977;0;0;0;0
30.12.18;18:25:00;1;545;10550;0;2;0;1361;0;0;0;0;3;0;852;0;0;0;0;4;0;847;0;0;0;0;5;0;3083;2;0;0;0;0;0;6;0;2368;2;0;0;0;0;0;7;0;1846;0;0;0;0;8;0;1960;0;0;0;0;9;0;977;0;0;0;0
30.12.18;18:20:00;1;554;10503;0;2;0;1361;0;0;0;0;3;0;852;0;0;0;0;4;0;847;0;0;0;0;5;0;3083;2;0;0;0;0;0;6;0;2368;2;0;0;0;0;0;7;0;1846;0;0;0;0;8;0;1960;0;0;0;0;9;0;977;0;0;0;0
30.12.18;18:15:00;1;571;10458;0;2;0;1361;0;0;0;0;3;0;852;0;0;0;0;4;0;847;0;0;0;0;5;0;3083;2;0;0;0;0;0;6;0;2368;2;0;0;0;0;0;7;0;1846;0;0;0;0;8;0;1960;0;0;0;0;9;0;977;0;0;0;0
30.12.18;18:10:00;1;746;10410;0;2;0;1361;0;0;0;0;3;0;852;0;0;0;0;4;0;847;0;0;0;0;5;0;3083;2;0;0;0;0;0;6;0;2368;2;0;0;0;0;0;7;0;1846;0;0;0;0;8;0;1960;0;0;0;0;9;0;977;0;0;0;0
30.12.18;18:05:00;1;571;10335;0;2;0;1361;0;0;0;0;3;0;852;0;0;0;0;4;0;847;0;0;0;0;5;0;3083;2;0;0;0;0;0;6;0;2368;2;0;0;0;0;0;7;0;1846;0;0;0;0;8;0;1960;0;0;0;0;9;0;977;0;0;0;0
30.12.18;18:00:00;1;567;10288;0;2;0;1361;0;0;0;0;3;0;852;0;0;0;0;4;0;847;0;0;0;0;5;0;3083;2;0;0;0;0;0;6;0;2368;2;0;0;0;0;0;7;0;1846;0;0;0;0;8;0;1960;0;0;0;0;9;0;977;0;0;0;0
30.12.18;17:55:00;1;608;10241;0;2;0;1361;0;0;0;0;3;0;852;0;0;0;0;4;0;847;0;0;0;0;5;0;3083;2;0;0;0;0;0;6;0;2368;2;0;0;0;0;0;7;0;1846;0;0;0;0;8;0;1960;0;0;0;0;9;0;977;0;0;0;0
30.12.18;17:50:00;1;608;10191;0;2;0;1361;0;0;0;0;3;0;852;0;0;0;0;4;0;847;0;0;0;0;5;0;3083;2;0;0;0;0;0;6;0;2368;2;0;0;0;0;0;7;0;1846;0;0;0;0;8;0;1960;0;0;0;0;9;0;977;0;0;0;0
30.12.18;17:45:00;1;814;10140;0;2;0;1361;0;0;0;0;3;0;852;0;0;0;0;4;0;847;0;0;0;0;5;0;3083;2;0;0;0;0;0;6;0;2368;2;0;0;0;0;0;7;0;1846;0;0;0;0;8;0;1960;0;0;0;0;9;0;977;0;0;0;0
30.12.18;17:40:00;1;603;10062;0;2;0;1361;0;0;0;0;3;0;852;0;0;0;0;4;0;847;0;0;0;0;5;0;3083;2;0;0;0;0;0;6;0;2368;2;0;0;0;0;0;7;0;1846;0;0;0;0;8;0;1960;0;0;0;0;9;0;977;0;0;0;0
30.12.18;17:35:00;1;586;10012;0;2;0;1361;0;0;0;0;3;0;852;0;0;0;0;4;0;847;0;0;0;0;5;0;3083;2;0;0;0;0;0;6;0;2368;2;0;0;0;0;0;7;0;1846;0;0;0;0;8;0;1960;0;0;0;0;9;0;977;0;0;0;0
30.12.18;17:30:00;1;568;9964;0;2;0;1361;0;0;0;0;3;0;852;0;0;0;0;4;0;847;0;0;0;0;5;0;3083;2;0;0;0;0;0;6;0;2368;2;0;0;0;0;0;7;0;1846;0;0;0;0;8;0;1960;0;0;0;0;9;0;977;0;0;0;0
30.12.18;17:25:00;1;572;9916;0;2;0;1361;0;0;0;0;3;0;852;0;0;0;0;4;0;847;0;0;0;0;5;0;3083;2;0;0;0;0;0;6;0;2368;2;0;0;0;0;0;7;0;1846;0;0;0;0;8;0;1960;0;0;0;0;9;0;977;0;0;0;0
30.12.18;17:20:00;1;960;9867;0;2;0;1361;0;0;0;0;3;0;852;0;0;0;0;4;0;847;0;0;0;0;5;0;3083;2;0;0;0;0;0;6;0;2368;2;0;0;0;0;0;7;0;1846;0;0;0;0;8;0;1960;0;0;0;0;9;0;977;0;0;0;0
30.12.18;17:15:00;1;555;9791;0;2;0;1361;0;0;0;0;3;0;852;0;0;0;0;4;0;847;0;0;0;0;5;0;3083;2;0;0;0;0;0;6;0;2368;2;0;0;0;0;0;7;0;1846;0;0;0;0;8;0;1960;0;0;0;0;9;0;977;0;0;0;0
30.12.18;17:10:00;1;648;9743;0;2;0;1361;0;0;0;0;3;0;852;0;0;0;0;4;0;847;0;0;0;0;5;0;3083;2;0;0;0;0;0;6;0;2368;2;0;0;0;0;0;7;0;1846;0;0;0;0;8;0;1960;0;0;0;0;9;0;977;0;0;0;0
30.12.18;17:05:00;1;659;9689;0;2;0;1361;0;0;0;0;3;0;852;0;0;0;0;4;0;847;0;0;0;0;5;0;3083;2;0;0;0;0;0;6;0;2368;2;0;0;0;0;0;7;0;1846;0;0;0;0;8;0;1960;0;0;0;0;9;0;977;0;0;0;0
30.12.18;17:00:00;1;827;9631;0;2;0;1361;0;0;0;0;3;0;852;0;0;0;0;4;0;847;0;0;0;0;5;0;3083;2;0;0;0;0;0;6;0;2368;2;0;0;0;0;0;7;0;1846;0;0;0;0;8;0;1960;0;0;0;0;9;0;977;0;0;0;0
30.12.18;16:55:00;1;1372;9561;0;2;0;1361;0;0;0;0;3;0;852;0;0;0;0;4;0;847;0;0;0;0;5;0;3083;2;0;0;0;0;0;6;0;2368;2;0;0;0;0;0;7;0;1846;0;0;0;0;8;0;1960;0;0;0;0;9;0;977;0;0;0;0
30.12.18;16:50:00;1;1275;9453;0;2;0;1361;0;0;0;0;3;0;852;0;0;0;0;4;0;847;0;0;0;0;5;0;3083;2;0;0;0;0;0;6;0;2368;2;0;0;0;0;0;7;0;1846;0;0;0;0;8;0;1960;0;0;0;0;9;0;977;0;0;0;0
30.12.18;16:45:00;1;2440;9316;0;2;0;1361;0;0;0;0;3;0;852;0;0;0;0;4;0;847;0;0;0;0;5;0;3083;2;0;0;0;0;0;6;0;2368;2;0;0;0;0;0;7;0;1846;0;0;0;0;8;0;1960;0;0;0;0;9;0;977;0;0;0;0
30.12.18;16:40:00;1;2427;9116;0;2;0;1361;0;0;0;0;3;0;852;0;0;0;0;4;0;847;0;0;0;0;5;0;3083;2;0;0;0;0;0;6;0;2368;2;0;0;0;0;0;7;0;1846;0;0;0;0;8;0;1960;0;0;0;0;9;0;977;0;0;0;0
30.12.18;16:35:00;1;1866;8951;0;2;0;1361;0;0;0;0;3;0;852;0;0;0;0;4;0;847;0;0;0;0;5;0;3083;2;0;0;0;0;0;6;0;2368;0;0;0;0;0;0;7;0;1846;0;0;0;0;8;0;1960;0;0;0;0;9;0;977;0;0;0;0
30.12.18;16:30:00;1;2531;8763;0;2;0;1361;0;0;171;5;3;0;852;6;0;284;11;4;0;847;0;0;19;2;5;0;3083;2;0;0;0;0;0;6;0;2368;2;0;0;0;0;0;7;0;1846;0;0;0;0;8;0;1960;0;0;0;0;9;0;977;0;0;0;0
30.12.18;16:25:00;1;1807;8563;0;2;0;1361;6;0;302;8;3;0;852;6;0;354;11;4;0;847;2;0;89;8;5;0;3083;2;0;1;124;123;7;6;0;2368;2;1;0;35;57;3;7;0;1846;0;0;0;0;8;0;1960;0;0;0;0;9;0;977;0;0;0;0
30.12.18;16:20:00;1;2574;8380;0;2;0;1361;6;0;347;8;3;0;852;6;1;414;11;4;0;847;1;0;140;8;5;0;3083;26;0;0;354;356;19;6;0;2368;23;5;5;459;221;18;7;0;1846;11;0;270;12;8;0;1960;11;0;274;11;9;0;977;6;0;295;8
30.12.18;16:15:00;1;2578;8165;0;2;0;1361;6;0;373;8;3;1;852;6;2;440;11;4;0;847;1;0;180;8;5;12;3083;1;0;3;396;590;20;6;0;2368;23;6;3;256;473;19;7;0;1846;6;0;332;12;8;0;1960;6;0;338;11;9;0;977;6;0;357;8
30.12.18;16:10:00;1;610;7961;0;2;0;1361;6;0;390;8;3;1;852;6;3;471;12;4;0;847;1;0;207;8;5;21;3082;26;3;6;402;626;20;6;5;2368;23;4;7;493;545;19;7;0;1846;6;0;383;12;8;0;1960;6;0;399;11;9;0;977;6;0;420;8
30.12.18;16:05:00;1;810;7910;0;2;0;1361;6;0;413;8;3;2;851;6;6;501;12;4;0;847;3;0;233;9;5;89;3080;4;26;27;367;580;21;6;28;2367;4;12;13;497;506;19;7;2;1846;3;4;425;12;8;1;1960;3;4;426;12;9;0;977;6;2;489;8
30.12.18;16:00:00;1;492;7840;0;2;0;1361;6;0;395;8;3;2;851;6;6;455;12;4;0;847;3;0;199;9;5;24;3073;4;2;5;414;651;20;6;0;2364;23;6;4;247;574;19;7;0;1846;6;0;418;12;8;0;1960;6;0;426;12;9;1;977;6;1;422;8
30.12.18;15:55:00;1;485;7799;0;2;0;1361;6;0;403;9;3;0;851;6;0;513;12;4;0;847;1;0;228;9;5;66;3072;1;15;15;392;623;21;6;29;2364;1;15;21;504;474;20;7;0;1846;6;0;420;12;8;0;1960;6;0;424;12;9;0;977;6;0;456;9
30.12.18;15:50:00;1;513;7757;0;2;2;1361;6;7;401;9;3;2;851;4;7;480;12;4;0;847;3;0;209;9;5;86;3065;4;20;26;384;613;21;6;9;2362;4;2;5;573;572;20;7;0;1846;4;1;441;13;8;1;1960;6;2;449;12;9;1;977;6;1;494;9
30.12.18;15:45:00;1;513;7714;0;2;0;1361;6;0;411;9;3;0;851;6;6;497;12;4;0;847;3;0;205;9;5;84;3058;4;21;20;384;613;21;6;53;2361;4;19;29;476;449;21;7;2;1846;3;6;419;13;8;0;1960;4;1;447;12;9;0;977;4;0;486;9
30.12.18;15:40:00;1;996;7672;0;2;50;1361;6;73;376;9;3;9;851;6;19;506;12;4;17;847;3;18;199;9;5;178;3051;4;75;63;385;613;21;6;114;2356;4;53;66;476;449;21;7;21;1846;6;30;478;13;8;20;1960;6;29;478;13;9;12;977;3;20;488;9
30.12.18;15:35:00;1;516;7602;0;2;61;1357;4;90;366;10;3;5;850;6;10;532;12;4;27;846;3;28;198;9;5;194;3035;4;82;73;384;613;21;6;127;2346;4;61;74;476;449;21;7;59;1844;4;80;365;13;8;61;1959;4;86;373;13;9;3;976;6;7;546;9
30.12.18;15:30:00;1;517;7559;0;2;120;1352;4;151;374;10;3;51;850;6;76;519;12;4;74;843;3;77;210;9;5;295;3019;4;142;119;385;613;21;6;192;2335;4;89;103;476;449;21;7;126;1839;4;148;449;13;8;108;1953;4;143;457;13;9;39;975;6;54;538;9
30.12.18;15:25:00;1;517;7516;0;2;165;1342;4;197;387;10;3;88;846;4;127;516;12;4;118;837;5;122;229;9;5;367;2994;4;177;155;385;613;21;6;238;2319;4;123;129;475;449;21;7;169;1829;4;203;464;13;8;172;1944;4;211;459;13;9;92;972;4;115;463;9
30.12.18;15:20:00;1;507;7473;0;2;84;1328;4;102;400;9;3;59;838;4;88;485;12;4;69;827;3;71;199;9;5;276;2963;4;127;112;384;613;21;6;183;2299;4;95;104;476;449;21;7;120;1815;4;151;427;13;8;129;1930;4;160;425;13;9;31;965;6;42;518;9
30.12.18;15:15:00;1;746;7430;0;2;46;1321;6;71;384;9;3;7;833;6;13;532;12;4;27;822;3;28;199;9;5;180;2941;4;78;70;385;613;21;6;119;2284;4;58;73;476;449;21;7;25;1805;6;32;484;13;8;18;1919;6;32;479;13;9;7;962;6;11;542;9
30.12.18;15:10:00;1;477;7365;0;2;84;1317;4;113;374;10;3;15;833;6;24;517;12;4;39;819;3;40;198;9;5;218;2926;4;99;89;385;613;21;6;145;2274;4;54;66;476;449;21;7;71;1803;4;103;438;13;8;71;1918;4;104;435;13;9;5;961;6;9;555;9
30.12.18;15:05:00;1;524;7325;0;2;127;1310;4;159;387;10;3;63;832;6;91;506;12;4;87;816;3;90;213;9;5;317;2907;4;151;128;384;613;21;6;202;2262;4;100;111;476;449;21;7;113;1796;4;145;456;13;8;107;1911;4;142;472;13;9;43;961;6;57;501;9
30.12.18;15:00:00;1;534;7281;0;2;96;1300;4;126;366;10;3;20;827;4;32;526;12;4;52;809;3;54;199;9;5;239;2881;4;112;96;385;613;21;6;158;2245;4;79;92;475;449;21;7;72;1788;4;112;469;13;8;74;1903;4;114;471;13;9;6;958;6;9;561;9
30.12.18;14:55:00;1;536;7237;0;2;73;1292;4;102;373;10;3;14;825;3;26;505;13;4;28;804;3;29;199;9;5;197;2862;4;82;69;384;613;21;6;129;2232;4;46;57;476;449;21;7;58;1781;4;91;421;13;8;64;1896;4;93;433;13;9;6;957;6;10;549;9
30.12.18;14:50:00;1;781;7192;0;2;18;1286;3;27;407;10;3;3;823;6;6;533;13;4;16;802;3;16;200;9;5;158;2845;4;64;57;384;613;21;6;104;2221;4;45;59;476;449;21;7;37;1777;4;47;457;13;8;40;1891;4;60;445;13;9;10;957;6;17;519;10
30.12.18;14:45:00;1;489;7120;0;2;88;1284;4;119;366;10;3;26;823;6;40;534;13;4;50;801;3;52;198;9;5;238;2833;4;109;95;384;613;21;6;153;2212;4;78;88;476;449;21;7;60;1773;6;89;467;13;8;60;1888;6;89;469;13;9;4;956;6;8;551;10
30.12.18;14:40:00;1;460;7079;0;2;192;1277;4;228;393;10;3;110;821;4;151;506;13;4;149;796;3;155;224;9;5;436;2812;4;223;188;396;619;21;6;316;2199;4;145;156;538;516;21;7;206;1769;4;234;464;13;8;191;1883;4;227;477;13;9;96;956;6;116;523;10
30.12.18;14:35:00;1;463;7041;0;2;263;1261;4;299;389;11;3;161;812;4;201;505;13;4;212;785;5;221;234;9;5;543;2774;4;267;241;394;643;21;6;406;2171;4;200;232;508;560;21;7;331;1752;4;358;474;13;8;328;1868;4;363;474;13;9;177;948;4;208;518;10
30.12.18;14:30:00;1;719;7002;0;2;319;1239;4;361;401;11;3;190;798;4;232;523;13;4;265;767;5;276;234;9;5;703;2728;4;354;305;402;644;21;6;520;2138;4;263;281;592;565;21;7;339;1725;4;392;478;13;8;349;1841;4;390;480;13;9;182;934;4;215;526;10
30.12.18;14:25:00;1;480;6936;0;2;616;1213;4;665;409;10;3;384;783;4;436;522;13;4;530;745;5;552;243;9;5;1176;2666;4;606;507;426;692;21;6;902;2092;4;463;483;605;580;21;7;768;1697;4;818;476;13;8;762;1812;4;813;474;13;9;412;919;4;457;521;10
30.12.18;14:20:00;1;487;6895;0;2;291;1162;4;332;393;10;3;178;751;4;218;514;13;4;235;702;5;245;234;9;5;584;2571;4;296;250;411;647;21;6;444;2019;4;228;244;579;558;21;7;309;1635;4;355;478;13;8;324;1751;4;359;461;13;9;175;885;4;203;523;10
30.12.18;14:15:00;1;475;6855;0;2;280;1138;4;318;384;10;3;173;736;4;214;509;13;4;230;682;5;240;231;9;5;582;2523;4;291;249;405;637;21;6;384;1982;4;175;193;482;466;21;7;307;1609;4;344;473;13;8;313;1724;4;352;475;13;9;123;871;4;171;514;10
30.12.18;14:10:00;1;469;6815;0;2;199;1114;4;235;388;10;3;112;722;4;153;518;13;4;153;663;5;159;224;9;5;440;2476;4;220;191;404;623;21;6;320;1952;4;161;171;544;514;20;7;197;1583;4;235;473;13;8;198;1697;4;232;479;13;9;77;860;6;95;551;10
30.12.18;14:05:00;1;835;6776;0;2;557;1098;4;607;404;11;3;318;713;4;366;520;13;4;316;650;5;329;238;9;5;1075;2438;4;554;472;425;692;21;6;1136;1924;4;583;589;601;566;20;7;490;1567;4;522;477;13;8;443;1681;4;480;496;13;9;225;854;4;258;544;10
30.12.18;14:00:00;1;569;6703;0;2;374;1048;4;413;400;10;3;225;685;4;268;509;13;4;258;623;5;269;235;9;5;674;2331;4;341;290;408;640;21;6;959;1845;4;493;474;588;562;20;7;361;1526;4;420;488;13;8;360;1644;4;403;484;13;9;191;836;4;222;530;10
30.12.18;13:55:00;1;572;6655;0;2;276;1015;4;313;387;10;3;166;665;4;205;522;13;4;229;601;5;239;237;9;5;608;2277;4;311;260;410;655;21;6;462;1801;4;177;193;584;566;20;7;239;1495;4;292;481;13;8;263;1613;4;301;474;13;9;137;819;4;166;518;10
30.12.18;13:50:00;1;557;6607;0;2;262;991;4;300;391;10;3;159;650;4;200;517;13;4;216;581;5;225;233;9;5;580;2225;4;291;252;403;632;21;6;445;1761;4;266;295;571;564;20;7;284;1473;4;310;475;13;8;253;1590;4;311;485;13;9;151;807;4;180;517;10
30.12.18;13:45:00;1;1114;6561;0;2;277;968;4;314;387;10;3;167;636;4;209;522;13;4;226;563;5;235;235;9;5;618;2176;4;310;265;409;635;21;6;437;1724;4;168;212;484;562;20;7;286;1449;4;332;473;13;8;300;1568;4;335;464;13;9;164;794;4;190;525;10
30.12.18;13:40:00;1;545;6490;0;2;227;945;4;263;388;10;3;132;622;4;171;517;13;4;180;544;5;188;228;9;5;504;2125;4;253;214;409;627;20;6;360;1688;4;144;179;498;563;20;7;247;1425;4;292;474;13;8;258;1543;4;297;469;13;9;142;780;4;171;521;10
30.12.18;13:35:00;1;563;6444;0;2;255;926;4;290;383;10;3;153;611;4;194;505;13;4;204;529;5;213;236;8;5;548;2083;4;284;240;408;617;20;6;422;1658;4;213;234;581;564;20;7;278;1404;4;317;472;13;8;279;1521;4;318;471;13;9;149;769;4;176;523;10